Winner, SD

5:08 PM CDT on March 28, 2017 (GMT -0500)
Winner

Weather History for KICR - August, 2013

Change the Weather History Date:

Tuesday, August 13, 2013

  Actual Average Record
Temperature  
Mean Temperature 71 °F 75 °F  
Max Temperature 79 °F 88 °F 105 °F (2007)
Min Temperature 63 °F 63 °F 51 °F (2012)
Degree Days  
Heating Degree Days 0 0  
Month to date heating degree days 0 0  
Since 1 June heating degree days 60 59  
Since 1 July heating degree days 7 5  
Cooling Degree Days 6 10  
Month to date cooling degree days 76 144  
Year to date cooling degree days 535 650  
Since 1 June cooling degree days 496 620  
Growing Degree Days 20 (Base 50)    
Moisture  
Dew Point 62 °F    
Average Humidity 75    
Maximum Humidity 100    
Minimum Humidity 50    
Precipitation  
Precipitation 0.00 in 0.09 in 0.51 in (2008)
Month to date precipitation 2.18 1.12  
Year to date precipitation 15.68 15.80  
Sea Level Pressure  
Sea Level Pressure 30.14 in    
Wind  
Wind Speed 8 mph (ESE)    
Max Wind Speed 16 mph    
Max Gust Speed 21 mph    
Visibility 10 miles    
Events      
T = Trace of Precipitation, MM = Missing Value Source: NWS Daily Summary

Daily Weather History Graph

Daily Weather History Graph

Search for Another Location

Airport or City:

Trip Planner

Search our weather history database for the weather conditions in past years. The results will help you decide how hot, cold, wet, or windy it might be!

Date:

Astronomy

Aug. 13, 2013 Rise Set
Actual Time 6:42 AM CDT 8:44 PM CDT
Civil Twilight 6:11 AM CDT 9:15 PM CDT
Nautical Twilight 5:33 AM CDT 9:53 PM CDT
Astronomical Twilight 4:51 AM CDT 10:35 PM CDT
Moon 1:53 PM CDT (8/13) No Moon Set
Length of Visible Light 15h 04m
Length of Day
14h 02m
Waxing Crescent, 42% of the Moon is Illuminated
Aug 13
Waxing Crescent
Aug 14
First Quarter
Aug 20
Full
Aug 28
Last Quarter
Sep 5
New

Hourly Weather History & Observations

Time (CDT) Temp. Dew Point Humidity Pressure Visibility Wind Dir Wind Speed Gust Speed Precip Events Conditions
12:53 AM 64.9 °F 63.0 °F 93% 30.09 in 9.0 mi SE 5.8 mph - N/A   Clear
1:53 AM 64.0 °F 63.0 °F 96% 30.08 in 8.0 mi SE 6.9 mph - N/A   Clear
2:53 AM 64.0 °F 63.0 °F 96% 30.09 in 8.0 mi SE 4.6 mph - N/A   Overcast
3:53 AM 64.0 °F 63.0 °F 96% 30.09 in 8.0 mi East 3.5 mph - N/A   Mostly Cloudy
4:53 AM 64.0 °F 62.1 °F 93% 30.10 in 10.0 mi SE 5.8 mph - N/A   Partly Cloudy
5:53 AM 63.0 °F 62.1 °F 97% 30.09 in 10.0 mi East 5.8 mph - N/A   Partly Cloudy
6:53 AM 63.0 °F 61.0 °F 93% 30.12 in 7.0 mi East 4.6 mph - N/A   Mostly Cloudy
7:53 AM 64.0 °F 62.1 °F 93% 30.13 in 8.0 mi ESE 9.2 mph - N/A   Clear
8:53 AM 66.9 °F 64.0 °F 90% 30.15 in 8.0 mi SE 5.8 mph - N/A   Scattered Clouds
9:53 AM 70.0 °F 64.9 °F 84% 30.16 in 10.0 mi ESE 10.4 mph - N/A   Mostly Cloudy
10:46 AM 73.4 °F 64.4 °F 73% 30.19 in 10.0 mi East 13.8 mph 19.6 mph N/A   Mostly Cloudy
10:53 AM 73.9 °F 64.9 °F 73% 30.17 in 10.0 mi ESE 11.5 mph - N/A   Mostly Cloudy
11:34 AM 75.2 °F 64.4 °F 69% 30.20 in 10.0 mi ESE 12.7 mph 20.7 mph N/A   Mostly Cloudy
11:53 AM 75.0 °F 64.0 °F 69% 30.16 in 10.0 mi East 12.7 mph 19.6 mph N/A   Scattered Clouds
12:19 PM 75.2 °F 62.6 °F 65% 30.20 in 10.0 mi ESE 11.5 mph - N/A   Mostly Cloudy
12:28 PM 75.2 °F 62.6 °F 65% 30.20 in 10.0 mi ESE 11.5 mph 19.6 mph N/A   Scattered Clouds
12:35 PM 75.2 °F 62.6 °F 65% 30.19 in 10.0 mi SE 12.7 mph - N/A   Mostly Cloudy
12:43 PM - - N/A% 30.20 in - North - - N/A   Unknown
12:53 PM - - N/A% 30.20 in - North - - N/A   Unknown
1:53 PM 75.9 °F 61.0 °F 60% 30.15 in 10.0 mi SE 9.2 mph - N/A   Mostly Cloudy
2:53 PM 78.1 °F 59.0 °F 52% 30.14 in 10.0 mi ESE 9.2 mph - N/A   Unknown
3:53 PM 78.1 °F 59.0 °F 52% 30.12 in 10.0 mi SE 13.8 mph 19.6 mph N/A   Clear
4:53 PM 78.1 °F 60.1 °F 54% 30.11 in 10.0 mi SE 13.8 mph 18.4 mph N/A   Partly Cloudy
5:53 PM 77.0 °F 57.9 °F 52% 30.11 in 10.0 mi ESE 10.4 mph - N/A   Clear
6:53 PM 75.0 °F 59.0 °F 57% 30.10 in 10.0 mi ESE 13.8 mph - N/A   Clear
7:53 PM 72.0 °F 59.0 °F 64% 30.10 in 10.0 mi ESE 8.1 mph - N/A   Clear
8:53 PM 68.0 °F 60.1 °F 76% 30.10 in 10.0 mi ESE 6.9 mph - N/A   Clear
9:53 PM 66.0 °F 61.0 °F 84% 30.13 in 10.0 mi SE 5.8 mph - N/A   Overcast
10:53 PM 66.9 °F 60.1 °F 79% 30.12 in 10.0 mi SE 6.9 mph - N/A   Mostly Cloudy
11:53 PM 66.9 °F 59.0 °F 76% 30.13 in 10.0 mi SSE 8.1 mph - N/A   Overcast